| time (UTC) | temp F | wind direction | speed MPH | gust MPH | rain 1hr in | rain 24hr in | rain mn in | humidity % | barometer mb |
| 20260831111522 | 71 | 44 | 0.0 | 8.0 | 0.00 | 0.00 | 0.00 | 85 | 1013.3 |
| 20260831110022 | 72 | 333 | 2.0 | 8.0 | 0.00 | 0.00 | 0.00 | 81 | 1013.3 |
| 20260831104519 | 73 | 37 | 3.0 | 8.0 | 0.00 | 0.00 | 0.00 | 78 | 1013.0 |
| 20260831103018 | 73 | 77 | 2.0 | 4.0 | 0.00 | 0.00 | 0.00 | 78 | 1012.4 |
| 20260831101518 | 73 | 310 | 1.0 | 7.0 | 0.00 | 0.00 | 0.00 | 78 | 1012.0 |
| 20260831100018 | 73 | 308 | 2.0 | 6.0 | 0.00 | 0.00 | 0.00 | 78 | 1012.0 |
| 20260831094512 | 73 | 320 | 2.0 | 7.0 | 0.00 | 0.00 | 0.00 | 78 | 1011.8 |
| 20260831093024 | 74 | 324 | 3.0 | 7.0 | 0.00 | 0.00 | 0.00 | 78 | 1012.0 |
| 20260831091511 | 74 | 316 | 3.0 | 7.0 | 0.00 | 0.00 | 0.00 | 79 | 1012.0 |
| 20260831090012 | 73 | 317 | 2.0 | 9.0 | 0.00 | 0.00 | 0.00 | 80 | 1011.9 |
| 20260831084508 | 73 | 287 | 2.0 | 5.0 | 0.00 | 0.00 | 0.00 | 82 | 1012.0 |
| 20260831083007 | 73 | 239 | 2.0 | 9.0 | 0.00 | 0.00 | 0.00 | 82 | 1011.9 |
| 20260831081506 | 73 | 246 | 2.0 | 4.0 | 0.00 | 0.00 | 0.00 | 83 | 1012.1 |
| 20260831080005 | 73 | 271 | 1.0 | 5.0 | 0.00 | 0.00 | 0.00 | 84 | 1012.1 |
| 20260831074503 | 73 | 254 | 0.0 | 3.0 | 0.00 | 0.00 | 0.00 | 85 | 1012.3 |
| 20260831073002 | 73 | 268 | 1.0 | 4.0 | 0.00 | 0.00 | 0.00 | 86 | 1012.5 |
| 20260831071600 | 73 | 271 | 0.0 | 3.0 | 0.00 | 0.00 | 0.00 | 86 | 1012.6 |
| 20260831070104 | 74 | 263 | 0.0 | 2.0 | 0.00 | 0.00 | 0.00 | 87 | 1012.7 |
| 20260831064559 | 74 | 262 | 1.0 | 4.0 | 0.00 | 0.00 | 0.00 | 87 | 1012.7 |
| 20260831063057 | 74 | 259 | 1.0 | 5.0 | 0.00 | 0.00 | 0.00 | 86 | 1012.6 |
| 20260831061557 | 74 | 238 | 2.0 | 7.0 | 0.00 | 0.00 | 0.00 | 86 | 1012.5 |
| 20260831060057 | 74 | 256 | 4.0 | 9.0 | 0.00 | 0.00 | 0.00 | 88 | 1012.5 |
| 20260831054554 | 74 | 254 | 2.0 | 8.0 | 0.00 | 0.00 | 0.00 | 89 | 1012.7 |
| 20260831053054 | 73 | 251 | 2.0 | 8.0 | 0.00 | 0.00 | 0.00 | 89 | 1012.6 |
| 20260831051600 | 73 | 262 | 2.0 | 7.0 | 0.00 | 0.00 | 0.00 | 89 | 1012.5 |
| 20260831050053 | 73 | 306 | 3.0 | 6.0 | 0.00 | 0.00 | 0.00 | 89 | 1012.6 |
| 20260831044604 | 73 | 248 | 1.0 | 4.0 | 0.00 | 0.00 | 0.00 | 89 | 1012.6 |
| 20260831043050 | 73 | 248 | 2.0 | 7.0 | 0.00 | 0.00 | 0.00 | 89 | 1012.7 |
| 20260831041559 | 73 | 248 | 2.0 | 8.0 | 0.00 | 0.00 | 0.00 | 89 | 1012.8 |
| 20260831040149 | 73 | 218 | 3.0 | 6.0 | 0.00 | 0.00 | 0.00 | 89 | 1013.0 |
| 20260831034519 | 73 | 262 | 2.0 | 5.0 | 0.00 | 0.00 | 0.00 | 89 | 1012.6 |
| 20260831033017 | 73 | 264 | 1.0 | 9.0 | 0.00 | 0.00 | 0.00 | 89 | 1012.5 |
| 20260831031546 | 73 | 318 | 4.0 | 8.0 | 0.00 | 0.00 | 0.00 | 89 | 1013.1 |
| 20260831030046 | 73 | 283 | 4.0 | 7.0 | 0.00 | 0.00 | 0.00 | 89 | 1013.3 |
| 20260831024544 | 73 | 306 | 4.0 | 7.0 | 0.00 | 0.00 | 0.00 | 89 | 1013.7 |
| 20260831023042 | 73 | 345 | 2.0 | 8.0 | 0.00 | 0.00 | 0.00 | 89 | 1014.0 |
| 20260831021541 | 73 | 313 | 4.0 | 8.0 | 0.00 | 0.00 | 0.00 | 89 | 1013.7 |
| 20260831020042 | 73 | 309 | 4.0 | 8.0 | 0.00 | 0.00 | 0.00 | 89 | 1013.6 |
| 20260831014539 | 73 | 333 | 0.0 | 3.0 | 0.00 | 0.00 | 0.00 | 89 | 1013.8 |
| 20260831013039 | 73 | 293 | 3.0 | 5.0 | 0.00 | 0.00 | 0.00 | 89 | 1013.4 |
| 20260831011538 | 73 | 314 | 1.0 | 5.0 | 0.00 | 0.00 | 0.00 | 89 | 1013.7 |
| 20260831010043 | 73 | 318 | 4.0 | 8.0 | 0.00 | 0.00 | 0.00 | 89 | 1013.4 |
| 20260831004536 | 73 | 283 | 2.0 | 8.0 | 0.00 | 0.00 | 0.00 | 89 | 1013.5 |
| 20260831003006 | 73 | 310 | 3.0 | 6.0 | 0.00 | 0.00 | 0.00 | 89 | 1013.3 |
| 20260831001506 | 73 | 306 | 4.0 | 10.0 | 0.00 | 0.00 | 0.00 | 89 | 1013.4 |
| 20260831000004 | 73 | 272 | 6.0 | 11.0 | 0.00 | 0.00 | 0.00 | 89 | 1012.9 |
| 20260830234604 | 73 | 296 | 6.0 | 11.0 | 0.00 | 0.00 | 0.00 | 89 | 1012.8 |
| 20260830233059 | 73 | 304 | 3.0 | 10.0 | 0.00 | 0.00 | 0.00 | 88 | 1012.9 |
| 20260830233001 | 73 | 283 | 3.0 | 10.0 | 0.00 | 0.00 | 0.00 | 88 | 1012.9 |
| 20260830231559 | 73 | 307 | 3.0 | 8.0 | 0.00 | 0.00 | 0.00 | 88 | 1013.2 |
| 20260830230056 | 73 | 301 | 4.0 | 10.0 | 0.00 | 0.00 | 0.00 | 88 | 1013.5 |
| 20260830224557 | 73 | 310 | 3.0 | 7.0 | 0.00 | 0.00 | 0.00 | 87 | 1013.6 |
| 20260830223054 | 74 | 312 | 4.0 | 7.0 | 0.00 | 0.00 | 0.00 | 86 | 1013.7 |
| 20260830221554 | 74 | 300 | 3.0 | 8.0 | 0.00 | 0.00 | 0.00 | 84 | 1013.7 |
| 20260830220025 | 75 | 314 | 5.0 | 9.0 | 0.00 | 0.00 | 0.00 | 81 | 1013.9 |
| 20260830214523 | 76 | 289 | 4.0 | 10.0 | 0.00 | 0.00 | 0.00 | 79 | 1013.7 |
| 20260830213019 | 76 | 325 | 4.0 | 10.0 | 0.00 | 0.00 | 0.00 | 79 | 1013.6 |
| 20260830211520 | 77 | 320 | 4.0 | 10.0 | 0.00 | 0.00 | 0.00 | 78 | 1013.7 |
| 20260830210019 | 78 | 321 | 6.0 | 9.0 | 0.00 | 0.00 | 0.00 | 79 | 1013.7 |
| 20260830204518 | 77 | 292 | 3.0 | 6.0 | 0.00 | 0.00 | 0.00 | 82 | 1013.6 |
| 20260830203036 | 76 | 324 | 2.0 | 5.0 | 0.00 | 0.00 | 0.00 | 82 | 1013.9 |
| 20260830201515 | 77 | 24 | 6.0 | 18.0 | 0.00 | 0.00 | 0.00 | 79 | 1014.1 |
| 20260830200017 | 77 | 341 | 4.0 | 7.0 | 0.00 | 0.00 | 0.00 | 80 | 1013.9 |
| 20260830194513 | 76 | 320 | 3.0 | 6.0 | 0.00 | 0.00 | 0.00 | 81 | 1013.6 |
| 20260830193010 | 75 | 317 | 2.0 | 4.0 | 0.00 | 0.00 | 0.00 | 82 | 1013.6 |
| 20260830191511 | 75 | 319 | 2.0 | 5.0 | 0.00 | 0.00 | 0.00 | 81 | 1013.7 |
| 20260830190009 | 76 | 312 | 4.0 | 7.0 | 0.00 | 0.00 | 0.00 | 79 | 1013.7 |
| 20260830184519 | 77 | 331 | 2.0 | 6.0 | 0.00 | 0.00 | 0.00 | 76 | 1013.7 |
| 20260830183015 | 80 | 349 | 5.0 | 12.0 | 0.00 | 0.00 | 0.00 | 67 | 1014.1 |
| 20260830181505 | 81 | 59 | 6.0 | 11.0 | 0.00 | 0.00 | 0.00 | 65 | 1014.2 |
| 20260830180003 | 82 | 355 | 5.0 | 12.0 | 0.00 | 0.00 | 0.00 | 63 | 1012.7 |
| 20260830174502 | 82 | 329 | 5.0 | 16.0 | 0.00 | 0.00 | 0.00 | 65 | 1012.2 |
| 20260830173111 | 81 | 320 | 7.0 | 16.0 | 0.00 | 0.00 | 0.00 | 66 | 1012.5 |
| 20260830171559 | 80 | 331 | 8.0 | 17.0 | 0.00 | 0.00 | 0.00 | 67 | 1012.6 |
| 20260830170053 | 79 | 328 | 8.0 | 19.0 | 0.00 | 0.00 | 0.00 | 67 | 1012.6 |
| 20260830164553 | 80 | 276 | 7.0 | 15.0 | 0.00 | 0.00 | 0.00 | 68 | 1012.7 |
| 20260830163033 | 80 | 248 | 7.0 | 16.0 | 0.00 | 0.00 | 0.00 | 69 | 1012.6 |
| 20260830161519 | 79 | 344 | 7.0 | 14.0 | 0.00 | 0.00 | 0.00 | 70 | 1012.6 |
| 20260830160011 | 78 | 310 | 4.0 | 16.0 | 0.00 | 0.00 | 0.00 | 73 | 1012.7 |
| 20260830154517 | 78 | 332 | 7.0 | 11.0 | 0.00 | 0.00 | 0.00 | 73 | 1012.8 |
| 20260830153005 | 76 | 320 | 6.0 | 14.0 | 0.00 | 0.00 | 0.00 | 76 | 1012.7 |
| 20260830151601 | 75 | 345 | 8.0 | 15.0 | 0.00 | 0.00 | 0.00 | 78 | 1012.7 |
| 20260830150057 | 74 | 356 | 7.0 | 15.0 | 0.00 | 0.00 | 0.00 | 81 | 1012.8 |
| 20260830144558 | 73 | 238 | 7.0 | 17.0 | 0.00 | 0.00 | 0.00 | 82 | 1012.7 |
| 20260830143046 | 72 | 326 | 2.0 | 15.0 | 0.00 | 0.00 | 0.00 | 86 | 1013.0 |
| 20260830141541 | 71 | 286 | 4.0 | 12.0 | 0.00 | 0.00 | 0.00 | 88 | 1013.2 |
| 20260830140034 | 69 | 283 | 5.0 | 10.0 | 0.00 | 0.00 | 0.00 | 89 | 1013.3 |
| 20260830134531 | 69 | 269 | 6.0 | 10.0 | 0.00 | 0.00 | 0.00 | 89 | 1013.2 |
| 20260830133027 | 68 | 301 | 5.0 | 11.0 | 0.00 | 0.00 | 0.00 | 89 | 1013.3 |
| 20260830131533 | 68 | 262 | 5.0 | 10.0 | 0.00 | 0.00 | 0.00 | 89 | 1013.5 |
| 20260830130055 | 68 | 318 | 5.0 | 15.0 | 0.00 | 0.00 | 0.00 | 89 | 1013.8 |
| 20260830124557 | 68 | 314 | 5.0 | 17.0 | 0.00 | 0.00 | 0.00 | 89 | 1013.7 |
| 20260830123022 | 68 | 268 | 7.0 | 14.0 | 0.00 | 0.00 | 0.00 | 88 | 1013.9 |
| 20260830121520 | 69 | 311 | 4.0 | 9.0 | 0.00 | 0.00 | 0.00 | 86 | 1014.5 |
| 20260830120017 | 70 | 21 | 4.0 | 12.0 | 0.00 | 0.00 | 0.00 | 84 | 1014.5 |
| 20260830114516 | 70 | 293 | 6.0 | 12.0 | 0.00 | 0.00 | 0.00 | 82 | 1013.9 |
| 20260830113015 | 70 | 309 | 3.0 | 6.0 | 0.00 | 0.00 | 0.00 | 82 | 1014.0 |